Regional Weather Roundup
Issued by NWS State College, PA

Home | Current Version | Previous Version | Graphics & Text | Print | Product List | Glossary Off
Versions: 1 2 3 4 5 6 7 8 9 10 11 12 13 14 15 16 17 18 19 20 21 22 23 24 25 26 27 28 29 30 31 32 33 34 35 36 37 38 39 40 41 42 43 44 45 46 47 48 49 50

000
ASUS41 KCTP 300203
RWRCTP

REGIONAL WEATHER ROUNDUP
NATIONAL WEATHER SERVICE STATE COLLEGE PA
1000 PM EDT SUN MAY 29 2016

Note: "fair" indicates few or no clouds below 12,000 feet with no
significant weather and/or obstructions to visibility.

* = STATION THAT DOES NOT REPORT PRECIPITATION /E.G. RAIN...SNOW...ETC/
    THUNDER OR FOG.

PAZ002>004-007>009-013>016-020>023-029>032-300300-
WESTERN PENNSYLVANIA

CITY           SKY/WX    TMP DP  RH WIND       PRES   REMARKS
ERIE           CLOUDY    73  58  59 S14       29.97F
MEADVILLE      CLOUDY    66  60  81 S7        30.03F
FRANKLIN*      CLOUDY    63  57  82 S8        30.07F
NEW CASTLE     FAIR      67  62  84 CALM      30.05F
BEAVER COUNTY  NOT AVBL
BUTLER*        CLOUDY    64  57  77 CALM      30.08F
PITTSBURGH INT CLOUDY    69  59  70 S5        30.05S
PITTSBURGH     CLOUDY    66  59  78 S7        30.05S
INDIANA*       CLEAR     64  63  94 CALM      30.10S
LATROBE        CLEAR     64  64 100 CALM      30.07R
WASHINGTON CO* CLOUDY    66  61  82 CALM      30.07S
$$

PAZ004>006-010>012-017>019-024>028-033>037-041-042-045-046-049>053-300300-
CENTRAL PENNSYLVANIA

CITY           SKY/WX    TMP DP  RH WIND       PRES   REMARKS
BRADFORD       CLOUDY    66  57  72 CALM      30.09R
DUBOIS         CLOUDY    62  57  83 S3        30.08R
CLEARFIELD     CLOUDY    63  60  90 CALM      30.08R
JOHNSTOWN      CLOUDY    62  57  83 S7        30.10R HAZE
ALTOONA        PTCLDY    65  58  78 S5        30.08S
STATE COLLEGE  CLOUDY    68  60  74 CALM      30.06S
WILLIAMSPORT   CLOUDY    77  59  53 CALM      30.01S
SELINSGROVE    CLOUDY    74  63  68 CALM      30.04R
FT INDIANTOWN  MOCLDY    71  70  96 NE2       30.06S
CAPITAL CITY   CLOUDY    73  66  78 SE7       30.04F
HARRISBURG     CLOUDY    73  68  84 S6        30.04S
YORK           CLOUDY    71  69  93 CALM      30.06S
$$

PAZ038>040-043-044-047-048-054-055-060>062-067>071-300300-
EASTERN PENNSYLVANIA

CITY           SKY/WX    TMP DP  RH WIND       PRES   REMARKS
SCRANTON       CLOUDY    77  56  48 SW5       30.05R
MOUNT POCONO   LGT RAIN  71  55  56 SW7       30.11R
ALLENTOWN      LGT RAIN  74  69  85 SW8       30.06R
QUAKERTOWN*    CLOUDY    72  72 100 SW5       30.09R
READING        LGT RAIN  73  70  90 S6        30.05S
LANCASTER      LGT RAIN  71  70  96 SW5       30.06F
COATESVILLE    LGT RAIN  70  70 100 CALM      30.10R
POTTSTOWN      RAIN      71  71 100 S3        30.09R FOG
BLUE BELL      CLOUDY    70  70 100 SW3       30.08R
DOYLESTOWN     LGT RAIN  71  70  96 S5        30.08R
WILLOW GROVE   NOT AVBL
NORTH PHILA    LGT RAIN  74  72  93 SW5       30.09R FOG
PHILADELPHIA   LGT RAIN  73  70  90 SW3       30.08R FOG
$$



USA.gov is the U.S. government's official web portal to all federal, state and local government web resources and services.